QPF
0.01 0.01 0.01 0.01 0.01 0.00 0.01 0.01 0.01 0.01 0.01 0.01 0.03 0.04 0.04 0.06 0.08 0.07 0.10 0.11 0.10 0.08 0.08 0.08 0.08 0.08 0.08 0.09 0.08 0.07 0.07 0.07 0.07 0.06 0.05 0.04 0.04 0.06
0.02 0.02 0.02 0.01 0.01 0.01 0.00 0.01 0.01 0.01 0.01 0.01 0.01 0.02 0.02 0.03 0.04 0.07 0.10 0.13 0.12 0.10 0.08 0.08 0.07 0.07 0.07 0.08 0.07 0.06 0.05 0.05 0.05 0.04 0.03 0.03 0.03 0.03
0.01 0.02 0.02 0.02 0.02 0.01 0.00 0.01 0.01 0.01 0.02 0.01 0.01 0.01 0.02 0.02 0.03 0.05 0.12 0.14 0.14 0.13 0.12 0.10 0.08 0.08 0.08 0.07 0.07 0.07 0.06 0.05 0.04 0.04 0.04 0.03 0.02 0.02
0.02 0.02 0.02 0.02 0.02 0.02 0.01 0.01 0.01 0.02 0.02 0.02 0.01 0.01 0.01 0.01 0.02 0.04 0.08 0.13 0.16 0.13 0.12 0.12 0.11 0.10 0.09 0.09 0.08 0.08 0.07 0.06 0.05 0.05 0.04 0.04 0.03 0.02
0.02 0.02 0.02 0.03 0.03 0.03 0.03 0.02 0.02 0.01 0.02 0.02 0.01 0.01 0.01 0.01 0.02 0.03 0.05 0.10 0.14 0.17 0.13 0.11 0.12 0.11 0.11 0.10 0.08 0.08 0.07 0.06 0.06 0.06 0.05 0.04 0.04 0.03
0.03 0.03 0.03 0.03 0.03 0.04 0.04 0.03 0.03 0.02 0.02 0.02 0.01 0.01 0.01 0.01 0.02 0.03 0.05 0.08 0.10 0.14 0.17 0.13 0.11 0.11 0.11 0.10 0.09 0.08 0.07 0.06 0.06 0.06 0.06 0.05 0.04 0.03
0.02 0.03 0.03 0.03 0.02 0.02 0.01 0.02 0.03 0.03 0.03 0.03 0.02 0.02 0.02 0.02 0.02 0.03 0.06 0.10 0.11 0.14 0.18 0.17 0.14 0.11 0.10 0.10 0.10 0.08 0.07 0.06 0.06 0.05 0.05 0.05 0.05 0.04
0.02 0.03 0.03 0.02 0.01 0.00 0.00 0.00 0.00 0.01 0.01 0.02 0.02 0.02 0.03 0.04 0.04 0.04 0.05 0.10 0.13 0.16 0.18 0.19 0.22 0.20 0.15 0.12 0.10 0.09 0.07 0.07 0.06 0.06 0.05 0.05 0.05 0.04
0.01 0.03 0.02 0.01 0.03 0.04 0.04 0.02 0.01 0.00 0.00 0.00 0.01 0.01 0.02 0.05 0.07 0.06 0.06 0.10 0.14 0.19 0.21 0.20 0.24 0.27 0.27 0.21 0.18 0.13 0.11 0.09 0.08 0.07 0.07 0.06 0.05 0.05
0.01 0.03 0.05 0.04 0.05 0.06 0.06 0.06 0.05 0.03 0.02 0.01 0.01 0.00 0.01 0.03 0.07 0.07 0.07 0.08 0.13 0.20 0.24 0.23 0.24 0.24 0.26 0.26 0.24 0.21 0.16 0.13 0.10 0.09 0.09 0.08 0.06 0.05
0.01 0.03 0.05 0.05 0.05 0.02 0.02 0.03 0.03 0.03 0.01 0.01 0.00 0.00 0.00 0.00 0.01 0.03 0.04 0.06 0.09 0.16 0.20 0.22 0.23 0.24 0.22 0.22 0.23 0.21 0.19 0.17 0.14 0.11 0.09 0.10 0.09 0.08
0.03 0.04 0.03 0.02 0.02 0.01 0.01 0.03 0.03 0.03 0.04 0.03 0.03 0.01 0.00 0.00 0.00 0.00 0.02 0.04 0.08 0.12 0.14 0.15 0.19 0.22 0.21 0.18 0.19 0.19 0.16 0.15 0.16 0.14 0.12 0.09 0.09 0.07
0.02 0.03 0.05 0.02 0.00 0.00 0.00 0.01 0.02 0.02 0.04 0.05 0.06 0.06 0.04 0.02 0.01 0.01 0.01 0.02 0.06 0.12 0.16 0.14 0.14 0.17 0.17 0.17 0.16 0.17 0.16 0.13 0.12 0.13 0.13 0.10 0.07 0.05
0.01 0.03 0.04 0.01 0.00 0.00 0.00 0.00 0.00 0.00 0.00 0.02 0.04 0.05 0.05 0.04 0.03 0.03 0.03 0.03 0.05 0.09 0.17 0.19 0.14 0.13 0.13 0.14 0.15 0.14 0.15 0.14 0.12 0.10 0.10 0.12 0.09 0.05
0.01 0.01 0.01 0.00 0.00 0.00 0.00 0.00 0.00 0.00 0.00 0.01 0.03 0.04 0.04 0.05 0.06 0.08 0.08 0.08 0.07 0.07 0.11 0.17 0.18 0.15 0.14 0.14 0.14 0.14 0.13 0.13 0.12 0.12 0.09 0.08 0.07 0.05
0.02 0.02 0.01 0.00 0.00 0.00 0.01 0.01 0.01 0.01 0.02 0.03 0.04 0.05 0.06 0.08 0.09 0.09 0.10 0.11 0.09 0.07 0.09 0.12 0.16 0.16 0.15 0.14 0.14 0.14 0.13 0.12 0.11 0.10 0.10 0.08 0.07 0.05
0.02 0.02 0.03 0.04 0.05 0.06 0.07 0.09 0.09 0.08 0.05 0.04 0.05 0.06 0.07 0.08 0.09 0.11 0.12 0.13 0.11 0.09 0.08 0.09 0.12 0.15 0.16 0.17 0.16 0.15 0.14 0.12 0.10 0.10 0.09 0.08 0.07 0.04
0.00 0.00 0.02 0.04 0.07 0.10 0.12 0.13 0.13 0.13 0.11 0.10 0.09 0.08 0.07 0.08 0.08 0.11 0.12 0.13 0.12 0.12 0.11 0.08 0.09 0.13 0.14 0.17 0.18 0.14 0.13 0.12 0.10 0.10 0.09 0.07 0.06 0.03
0.00 0.01 0.02 0.05 0.08 0.10 0.11 0.12 0.13 0.14 0.15 0.14 0.12 0.10 0.09 0.08 0.09 0.11 0.11 0.12 0.12 0.13 0.14 0.11 0.08 0.08 0.10 0.11 0.12 0.12 0.12 0.10 0.09 0.09 0.09 0.06 0.03 0.02
0.03 0.04 0.05 0.07 0.08 0.10 0.11 0.12 0.12 0.13 0.14 0.13 0.12 0.11 0.11 0.10 0.10 0.10 0.11 0.12 0.13 0.14 0.14 0.12 0.08 0.06 0.06 0.07 0.07 0.08 0.10 0.11 0.08 0.08 0.07 0.07 0.04 0.02
0.08 0.08 0.08 0.07 0.09 0.11 0.11 0.12 0.11 0.12 0.13 0.13 0.12 0.11 0.11 0.11 0.11 0.11 0.11 0.12 0.14 0.15 0.12 0.09 0.06 0.07 0.08 0.09 0.08 0.07 0.09 0.11 0.11 0.07 0.06 0.06 0.05 0.03
0.08 0.08 0.07 0.06 0.09 0.11 0.12 0.12 0.11 0.12 0.14 0.14 0.13 0.12 0.12 0.12 0.11 0.11 0.11 0.11 0.12 0.13 0.14 0.13 0.12 0.09 0.10 0.08 0.07 0.06 0.07 0.09 0.10 0.11 0.09 0.06 0.03 0.02
0.07 0.07 0.07 0.07 0.08 0.10 0.12 0.12 0.12 0.14 0.15 0.15 0.14 0.13 0.13 0.12 0.13 0.13 0.12 0.12 0.13 0.14 0.16 0.15 0.12 0.10 0.09 0.09 0.07 0.07 0.07 0.07 0.07 0.07 0.07 0.05 0.03 0.02
MSLP
1014.90 1015.00 1015.12 1015.21 1015.25 1015.22 1015.10 1014.89 1014.60 1014.25 1013.87 1013.48 1013.09 1012.74 1012.43 1012.17 1011.97 1011.83 1011.77 1011.78 1011.87 1012.04 1012.29 1012.59 1012.95 1013.33 1013.75 1014.17 1014.61 1015.06 1015.53 1016.01 1016.52 1017.05 1017.59 1018.13 1018.66 1019.16
1014.41 1014.52 1014.64 1014.74 1014.81 1014.80 1014.72 1014.56 1014.33 1014.06 1013.74 1013.40 1013.06 1012.73 1012.41 1012.12 1011.87 1011.66 1011.51 1011.44 1011.45 1011.54 1011.72 1011.97 1012.29 1012.65 1013.05 1013.46 1013.89 1014.33 1014.79 1015.27 1015.78 1016.31 1016.86 1017.41 1017.95 1018.46
1013.95 1014.05 1014.15 1014.24 1014.30 1014.30 1014.24 1014.13 1013.97 1013.77 1013.53 1013.27 1012.99 1012.69 1012.39 1012.09 1011.79 1011.52 1011.29 1011.13 1011.05 1011.06 1011.17 1011.37 1011.64 1011.97 1012.34 1012.74 1013.16 1013.60 1014.06 1014.54 1015.04 1015.58 1016.13 1016.69 1017.24 1017.76
1013.56 1013.62 1013.68 1013.74 1013.77 1013.76 1013.72 1013.64 1013.54 1013.41 1013.26 1013.08 1012.87 1012.63 1012.35 1012.04 1011.71 1011.39 1011.09 1010.85 1010.68 1010.62 1010.65 1010.78 1011.00 1011.30 1011.64 1012.02 1012.43 1012.86 1013.31 1013.78 1014.29 1014.82 1015.38 1015.95 1016.51 1017.05
1013.22 1013.23 1013.24 1013.24 1013.23 1013.20 1013.16 1013.11 1013.05 1012.99 1012.92 1012.82 1012.69 1012.50 1012.26 1011.97 1011.63 1011.27 1010.91 1010.60 1010.36 1010.22 1010.18 1010.25 1010.42 1010.67 1010.97 1011.33 1011.71 1012.11 1012.54 1013.00 1013.49 1014.02 1014.58 1015.15 1015.74 1016.30
1012.91 1012.86 1012.80 1012.75 1012.69 1012.63 1012.58 1012.54 1012.53 1012.52 1012.51 1012.49 1012.43 1012.30 1012.10 1011.83 1011.49 1011.11 1010.73 1010.37 1010.08 1009.87 1009.78 1009.79 1009.91 1010.10 1010.37 1010.67 1011.01 1011.37 1011.76 1012.19 1012.65 1013.16 1013.71 1014.30 1014.90 1015.50
1012.57 1012.46 1012.35 1012.24 1012.13 1012.05 1011.98 1011.95 1011.96 1012.00 1012.04 1012.08 1012.07 1012.00 1011.84 1011.60 1011.28 1010.91 1010.52 1010.14 1009.82 1009.58 1009.45 1009.42 1009.48 1009.63 1009.84 1010.09 1010.37 1010.67 1011.00 1011.37 1011.79 1012.27 1012.80 1013.39 1014.01 1014.65
1012.17 1012.01 1011.86 1011.70 1011.56 1011.45 1011.37 1011.34 1011.36 1011.42 1011.50 1011.58 1011.61 1011.58 1011.46 1011.26 1010.97 1010.62 1010.24 1009.88 1009.56 1009.32 1009.18 1009.12 1009.16 1009.26 1009.42 1009.61 1009.82 1010.05 1010.31 1010.61 1010.97 1011.39 1011.90 1012.47 1013.11 1013.78
1011.68 1011.50 1011.32 1011.14 1010.98 1010.85 1010.77 1010.73 1010.76 1010.82 1010.91 1011.00 1011.06 1011.05 1010.96 1010.79 1010.53 1010.23 1009.89 1009.57 1009.29 1009.08 1008.95 1008.90 1008.92 1009.00 1009.11 1009.24 1009.39 1009.54 1009.72 1009.94 1010.23 1010.59 1011.05 1011.61 1012.24 1012.94
1011.13 1010.95 1010.77 1010.58 1010.41 1010.28 1010.19 1010.15 1010.16 1010.22 1010.29 1010.37 1010.42 1010.42 1010.34 1010.19 1009.98 1009.72 1009.44 1009.18 1008.96 1008.81 1008.73 1008.71 1008.75 1008.83 1008.92 1009.01 1009.09 1009.18 1009.28 1009.42 1009.63 1009.93 1010.34 1010.86 1011.49 1012.19
1010.57 1010.40 1010.22 1010.05 1009.89 1009.76 1009.66 1009.61 1009.60 1009.63 1009.67 1009.72 1009.74 1009.72 1009.64 1009.50 1009.32 1009.11 1008.89 1008.71 1008.57 1008.50 1008.49 1008.53 1008.61 1008.71 1008.80 1008.88 1008.93 1008.97 1009.01 1009.08 1009.23 1009.46 1009.81 1010.29 1010.89 1011.60
1010.03 1009.89 1009.73 1009.58 1009.43 1009.30 1009.19 1009.12 1009.08 1009.07 1009.07 1009.06 1009.04 1008.98 1008.88 1008.74 1008.58 1008.41 1008.27 1008.16 1008.11 1008.12 1008.20 1008.32 1008.46 1008.61 1008.73 1008.81 1008.86 1008.87 1008.88 1008.91 1009.00 1009.19 1009.49 1009.92 1010.49 1011.17
1009.58 1009.45 1009.31 1009.17 1009.02 1008.89 1008.77 1008.67 1008.60 1008.54 1008.48 1008.42 1008.34 1008.23 1008.10 1007.96 1007.81 1007.68 1007.58 1007.54 1007.57 1007.67 1007.84 1008.04 1008.26 1008.46 1008.63 1008.76 1008.82 1008.85 1008.85 1008.87 1008.94 1009.09 1009.35 1009.75 1010.28 1010.93
1009.20 1009.08 1008.94 1008.79 1008.64 1008.49 1008.35 1008.22 1008.10 1007.99 1007.89 1007.77 1007.64 1007.49 1007.33 1007.17 1007.03 1006.92 1006.87 1006.89 1006.99 1007.16 1007.40 1007.68 1007.97 1008.24 1008.48 1008.66 1008.77 1008.84 1008.87 1008.91 1008.98 1009.12 1009.37 1009.73 1010.22 1010.83
1008.88 1008.74 1008.57 1008.40 1008.21 1008.03 1007.86 1007.70 1007.55 1007.40 1007.25 1007.10 1006.93 1006.75 1006.58 1006.41 1006.28 1006.19 1006.17 1006.23 1006.37 1006.60 1006.90 1007.23 1007.59 1007.93 1008.23 1008.48 1008.66 1008.79 1008.88 1008.96 1009.06 1009.22 1009.46 1009.81 1010.26 1010.83
1008.56 1008.36 1008.15 1007.92 1007.69 1007.47 1007.26 1007.06 1006.88 1006.71 1006.54 1006.37 1006.20 1006.02 1005.85 1005.69 1005.57 1005.50 1005.50 1005.59 1005.77 1006.02 1006.35 1006.73 1007.13 1007.52 1007.89 1008.20 1008.46 1008.66 1008.83 1008.98 1009.13 1009.33 1009.58 1009.92 1010.35 1010.88
1008.15 1007.89 1007.60 1007.30 1007.01 1006.74 1006.49 1006.27 1006.08 1005.90 1005.74 1005.59 1005.43 1005.28 1005.13 1005.01 1004.91 1004.87 1004.90 1005.00 1005.19 1005.46 1005.80 1006.20 1006.62 1007.05 1007.46 1007.83 1008.17 1008.45 1008.70 1008.93 1009.15 1009.40 1009.68 1010.02 1010.44 1010.93
1007.61 1007.26 1006.89 1006.52 1006.16 1005.84 1005.56 1005.33 1005.14 1004.99 1004.86 1004.74 1004.64 1004.54 1004.44 1004.37 1004.32 1004.31 1004.36 1004.47 1004.67 1004.94 1005.27 1005.67 1006.10 1006.54 1006.99 1007.42 1007.81 1008.18 1008.51 1008.82 1009.11 1009.42 1009.74 1010.10 1010.50 1010.96
1006.90 1006.48 1006.04 1005.60 1005.19 1004.84 1004.54 1004.31 1004.14 1004.02 1003.93 1003.88 1003.84 1003.81 1003.78 1003.77 1003.77 1003.80 1003.88 1004.01 1004.20 1004.46 1004.79 1005.18 1005.60 1006.06 1006.52 1006.99 1007.44 1007.87 1008.28 1008.66 1009.03 1009.39 1009.76 1010.14 1010.54 1010.97
1006.06 1005.59 1005.10 1004.63 1004.19 1003.82 1003.52 1003.30 1003.15 1003.07 1003.05 1003.05 1003.08 1003.12 1003.16 1003.21 1003.26 1003.34 1003.44 1003.59 1003.79 1004.04 1004.36 1004.73 1005.15 1005.61 1006.10 1006.59 1007.09 1007.58 1008.05 1008.50 1008.93 1009.35 1009.76 1010.16 1010.56 1010.99
1005.15 1004.67 1004.17 1003.69 1003.25 1002.89 1002.61 1002.41 1002.30 1002.26 1002.27 1002.33 1002.41 1002.50 1002.59 1002.69 1002.79 1002.89 1003.02 1003.19 1003.39 1003.65 1003.96 1004.33 1004.75 1005.22 1005.72 1006.24 1006.78 1007.31 1007.84 1008.35 1008.84 1009.30 1009.74 1010.17 1010.59 1011.01
1004.26 1003.81 1003.34 1002.89 1002.49 1002.16 1001.91 1001.75 1001.66 1001.65 1001.69 1001.77 1001.87 1001.98 1002.10 1002.21 1002.33 1002.46 1002.60 1002.78 1002.99 1003.26 1003.58 1003.95 1004.38 1004.86 1005.39 1005.94 1006.51 1007.08 1007.65 1008.21 1008.74 1009.24 1009.71 1010.17 1010.60 1011.02
1003.45 1003.07 1002.68 1002.31 1001.97 1001.70 1001.49 1001.36 1001.30 1001.29 1001.32 1001.39 1001.48 1001.58 1001.68 1001.78 1001.89 1002.01 1002.15 1002.33 1002.55 1002.83 1003.17 1003.56 1004.01 1004.52 1005.07 1005.65 1006.25 1006.86 1007.46 1008.05 1008.61 1009.15 1009.65 1010.12 1010.57 1011.01
Thickness
5649 5648 5646 5645 5646 5646 5646 5645 5642 5641 5647 5656 5664 5671 5675 5678 5680 5683 5687 5690 5694 5698 5701 5703 5706 5708 5711 5713 5715 5717 5718 5719 5719 5720 5720 5720 5719 5718
5640 5638 5637 5636 5636 5636 5636 5637 5637 5635 5637 5644 5650 5658 5664 5669 5672 5675 5679 5683 5687 5691 5695 5698 5701 5704 5707 5709 5712 5714 5715 5716 5717 5718 5718 5719 5719 5718
5632 5630 5628 5627 5626 5625 5626 5626 5627 5627 5627 5634 5640 5647 5651 5656 5661 5666 5670 5675 5680 5685 5689 5693 5697 5700 5703 5706 5708 5710 5712 5714 5715 5716 5717 5718 5718 5718
5623 5621 5619 5618 5617 5616 5615 5615 5617 5618 5619 5621 5627 5633 5639 5645 5651 5656 5662 5668 5673 5679 5683 5688 5692 5695 5698 5701 5704 5707 5709 5711 5713 5714 5715 5716 5717 5717
5615 5612 5610 5608 5607 5606 5606 5606 5607 5610 5612 5613 5617 5622 5628 5635 5640 5646 5653 5659 5665 5672 5676 5681 5686 5690 5693 5696 5700 5703 5706 5708 5710 5711 5713 5714 5715 5716
5608 5605 5603 5601 5600 5599 5598 5598 5598 5599 5601 5603 5607 5612 5618 5625 5630 5634 5640 5649 5656 5664 5669 5675 5679 5683 5687 5691 5695 5698 5702 5704 5707 5709 5710 5712 5714 5714
5602 5599 5597 5596 5595 5592 5592 5591 5590 5590 5591 5593 5597 5602 5608 5613 5618 5625 5631 5639 5647 5654 5660 5667 5672 5677 5680 5685 5689 5693 5697 5701 5704 5706 5708 5710 5711 5712
5595 5593 5592 5590 5590 5589 5587 5585 5583 5582 5582 5583 5586 5590 5596 5602 5608 5614 5620 5626 5633 5645 5650 5657 5664 5669 5675 5679 5684 5688 5692 5696 5700 5703 5705 5707 5708 5710
5589 5587 5586 5587 5586 5584 5582 5580 5578 5577 5576 5575 5577 5581 5585 5592 5596 5602 5608 5614 5623 5633 5639 5646 5654 5660 5667 5672 5678 5682 5687 5691 5695 5698 5701 5703 5705 5707
5585 5583 5581 5580 5579 5577 5575 5574 5573 5573 5573 5572 5573 5576 5580 5584 5588 5593 5598 5606 5617 5625 5631 5636 5645 5651 5657 5663 5669 5675 5680 5685 5689 5692 5696 5699 5701 5702
5583 5582 5580 5578 5575 5572 5569 5568 5567 5568 5569 5570 5572 5574 5576 5578 5581 5583 5589 5595 5605 5615 5624 5629 5636 5642 5647 5653 5660 5666 5672 5677 5682 5686 5690 5693 5695 5695
5581 5579 5577 5575 5571 5566 5563 5562 5560 5561 5561 5563 5565 5567 5569 5572 5575 5578 5582 5588 5596 5605 5617 5621 5626 5632 5637 5644 5650 5657 5663 5668 5673 5678 5682 5685 5687 5688
5575 5573 5572 5568 5564 5560 5556 5555 5554 5553 5553 5554 5556 5560 5563 5567 5571 5576 5580 5584 5590 5599 5609 5613 5618 5624 5630 5634 5641 5647 5654 5659 5664 5669 5673 5677 5680 5684
5569 5567 5565 5559 5555 5552 5550 5549 5548 5545 5545 5547 5550 5554 5558 5562 5567 5572 5578 5583 5589 5594 5601 5607 5612 5617 5622 5626 5631 5637 5644 5650 5656 5661 5665 5668 5672 5677
5565 5563 5557 5552 5549 5547 5545 5544 5541 5540 5541 5542 5545 5549 5553 5558 5562 5566 5573 5578 5584 5590 5596 5602 5607 5612 5617 5622 5626 5630 5635 5641 5647 5652 5656 5660 5665 5669
5559 5557 5554 5551 5547 5545 5544 5543 5540 5540 5540 5541 5543 5545 5548 5551 5555 5560 5565 5571 5576 5583 5590 5596 5602 5606 5611 5617 5621 5625 5630 5634 5639 5644 5648 5652 5657 5662
5553 5552 5551 5551 5549 5548 5547 5545 5544 5542 5539 5539 5539 5540 5542 5545 5549 5554 5559 5564 5569 5576 5582 5588 5594 5600 5605 5611 5614 5619 5624 5628 5633 5637 5640 5644 5649 5655
5545 5548 5549 5548 5548 5547 5545 5545 5544 5542 5541 5539 5537 5537 5538 5541 5545 5549 5554 5559 5564 5570 5576 5581 5585 5589 5594 5601 5610 5615 5618 5622 5626 5630 5635 5638 5641 5647
5542 5547 5547 5547 5546 5545 5544 5544 5543 5543 5541 5539 5537 5536 5536 5538 5541 5545 5550 5555 5560 5566 5571 5575 5579 5584 5589 5595 5601 5608 5613 5617 5619 5623 5628 5633 5637 5641
5548 5549 5549 5548 5546 5544 5543 5543 5542 5541 5540 5538 5536 5536 5536 5537 5539 5543 5547 5552 5556 5561 5565 5570 5575 5581 5587 5593 5596 5600 5606 5612 5615 5617 5620 5624 5627 5632
5554 5553 5550 5548 5546 5544 5543 5541 5540 5540 5539 5538 5536 5535 5535 5536 5538 5541 5545 5549 5553 5557 5562 5567 5574 5578 5583 5587 5590 5594 5599 5604 5610 5613 5615 5617 5620 5624
5553 5552 5550 5547 5545 5543 5541 5540 5539 5539 5538 5537 5536 5535 5535 5535 5537 5540 5544 5547 5551 5556 5561 5565 5569 5572 5577 5581 5586 5589 5591 5593 5597 5603 5607 5613 5619 5623
5552 5550 5548 5546 5543 5541 5539 5538 5538 5537 5537 5537 5536 5535 5535 5535 5537 5539 5543 5546 5550 5554 5558 5561 5564 5568 5572 5577 5581 5584 5585 5587 5590 5593 5596 5602 5611 5618